Weather History for Whiteman AFB, MO

Change the Weather History Date:

Monday, November 19, 2012

  Actual Average Record
Temperature  
Mean Temperature 54 °F -  
Max Temperature 62 °F 52 °F 71 °F (2011)
Min Temperature 46 °F 34 °F 18 °F (2014)
Degree Days  
Heating Degree Days 11    
Growing Degree Days 4 (Base 50)    
Moisture  
Dew Point 46 °F    
Average Humidity 83    
Maximum Humidity 100    
Minimum Humidity 48    
Precipitation  
Precipitation 0.02 in - - ()
Sea Level Pressure  
Sea Level Pressure 30.15 in    
Wind  
Wind Speed 12 mph (SSW)    
Max Wind Speed 18 mph    
Max Gust Speed 22 mph    
Visibility 10 miles    
Events Rain    
Averages and records for this station are not official NWS values.
T = Trace of Precipitation, MM = Missing Value Source: NWS Daily Summary

Daily Weather History Graph

Daily Weather History Graph

Search for Another Location

Airport:

Trip Planner

Search our weather history database for the weather conditions in past years. The results will help you decide how hot, cold, wet, or windy it might be!

Date:

Astronomy

Nov. 19, 2012 Rise Set
Actual Time 7:01 AM CST 4:57 PM CST
Civil Twilight 6:32 AM CST 5:26 PM CST
Nautical Twilight 6:00 AM CST 5:58 PM CST
Astronomical Twilight 5:28 AM CST 6:30 PM CST
Moon 12:06 PM CST (11/19) 11:23 PM CST (11/19)
Length of Visible Light 10h 53m
Length of Day
9h 56m
Waxing Crescent, 41% of the Moon is Illuminated
Nov 19
Waxing Crescent
Nov 20
First Quarter
Nov 28
Full
Dec 6
Last Quarter
Dec 13
New

Hourly Weather History & Observations

Time (CST) Temp. Windchill Dew Point Humidity Pressure Visibility Wind Dir Wind Speed Gust Speed Precip Events Conditions
12:55 AM 53.4 °F - 34.2 °F 48% 30.19 in 10.0 mi South 10.4 mph - N/A   Overcast
1:55 AM 53.2 °F - 36.3 °F 53% 30.18 in 10.0 mi South 9.2 mph - N/A   Overcast
2:55 AM 52.7 °F - 37.4 °F 56% 30.18 in 10.0 mi South 10.4 mph - N/A   Mostly Cloudy
3:14 AM 51.8 °F - 39.2 °F 62% 30.19 in 10.0 mi South 9.2 mph - N/A   Light Drizzle
3:34 AM 51.8 °F - 39.2 °F 62% 30.19 in 10.0 mi South 15.0 mph 20.7 mph N/A   Scattered Clouds
3:55 AM 52.5 °F - 40.5 °F 64% 30.18 in 10.0 mi SSW 18.4 mph - 0.00 in   Scattered Clouds
4:26 AM 51.8 °F - 42.8 °F 71% 30.18 in 10.0 mi SSW 18.4 mph - N/A   Light Drizzle
4:37 AM 50.0 °F - 44.6 °F 82% 30.18 in 10.0 mi SSW 13.8 mph 21.9 mph N/A Rain Light Rain
4:55 AM 48.9 °F - 46.9 °F 93% 30.19 in 10.0 mi SSW 13.8 mph - 0.01 in Rain Light Rain
5:22 AM 48.2 °F - 48.2 °F 100% 30.18 in 10.0 mi South 15.0 mph - N/A Rain Light Rain
5:29 AM 48.2 °F - 48.2 °F 100% 30.18 in 10.0 mi South 15.0 mph - N/A   Overcast
5:55 AM 47.8 °F - 47.5 °F 99% 30.17 in 10.0 mi South 16.1 mph - 0.01 in   Overcast
6:41 AM 48.2 °F - 48.2 °F 100% 30.17 in 10.0 mi South 13.8 mph - N/A Rain Light Rain
6:55 AM 48.0 °F - 47.8 °F 99% 30.17 in 10.0 mi South 15.0 mph - 0.00 in Rain Light Rain
7:02 AM 48.2 °F - 48.2 °F 100% 30.18 in 10.0 mi South 13.8 mph - N/A   Overcast
7:18 AM 48.2 °F - 48.2 °F 100% 30.18 in 10.0 mi South 11.5 mph - N/A   Overcast
7:55 AM 48.7 °F - 48.4 °F 99% 30.17 in 10.0 mi South 13.8 mph - 0.00 in   Overcast
8:55 AM 50.0 °F - 49.8 °F 99% 30.18 in 10.0 mi South 13.8 mph 21.9 mph N/A   Overcast
9:55 AM 52.5 °F - 50.5 °F 93% 30.19 in 10.0 mi SSW 17.3 mph - N/A   Overcast
10:55 AM 55.6 °F - 49.5 °F 80% 30.17 in 10.0 mi SSW 17.3 mph - N/A   Scattered Clouds
11:55 AM 58.6 °F - 49.3 °F 71% 30.14 in 10.0 mi South 17.3 mph - N/A   Clear
12:55 PM 61.2 °F - 48.9 °F 64% 30.11 in 10.0 mi SSW 13.8 mph - N/A   Clear
1:55 PM 61.9 °F - 49.5 °F 64% 30.09 in 10.0 mi SW 12.7 mph - N/A   Clear
2:55 PM 62.6 °F - 49.1 °F 61% 30.08 in 10.0 mi SW 13.8 mph - N/A   Clear
3:55 PM 62.2 °F - 49.8 °F 64% 30.08 in 10.0 mi SW 11.5 mph - N/A   Clear
4:55 PM 57.4 °F - 49.5 °F 75% 30.09 in 10.0 mi SSW 8.1 mph - N/A   Clear
5:55 PM 52.5 °F - 48.4 °F 86% 30.11 in 10.0 mi SSW 8.1 mph - N/A   Clear
6:55 PM 50.9 °F - 48.2 °F 90% 30.11 in 10.0 mi South 6.9 mph - N/A   Clear
7:55 PM 49.6 °F - 48.6 °F 96% 30.12 in 10.0 mi South 4.6 mph - N/A   Clear
8:55 PM 46.0 °F 42.5 °F 45.7 °F 99% 30.12 in 10.0 mi South 6.9 mph - N/A   Clear
9:55 PM 46.0 °F 41.0 °F 46.0 °F 100% 30.10 in 10.0 mi SSW 10.4 mph - N/A   Clear
10:55 PM 46.8 °F - 46.8 °F 100% 30.10 in 10.0 mi South 9.2 mph - N/A   Clear
11:55 PM 47.8 °F - 47.8 °F 100% 30.10 in 10.0 mi SSW 8.1 mph - N/A   Clear